カタログに戻る

GRITSS

運用中科学SSO
NORAD 69931·PAYLOAD·🇺🇸 United States

打ち上げ Jul 7, 2026 から Vandenberg Space Force Base

Loading…

次のパス (今後24時間)

TLE

最新Source: Space-Track

元期: Sep 14, 2026, 03:11 UTC

1 69931U 26156BQ  26257.13329908  .00001158  00000-0  11840-3 0  9997
2 69931  97.7442 156.4887 0007870 289.5825  70.4544 14.92455892 10265

AllMySatでGRITSSをリアルタイム追跡

Download on the App Store